Terrell, TX

7:10 PM CDT on July 20, 2017 (GMT -0500)
Terrell Municipal

Weather History for KTRL - December, 2012

Change the Weather History Date:

Sunday, December 9, 2012

  Actual Average (KGVT) Record (KGVT)
Temperature  
Mean Temperature 60 °F -  
Max Temperature 75 °F 55 °F 73 °F (2012)
Min Temperature 44 °F 40 °F 12 °F (2005)
Degree Days  
Heating Degree Days 4    
Growing Degree Days 10 (Base 50)    
Moisture  
Dew Point 54 °F    
Average Humidity 70    
Maximum Humidity 93    
Minimum Humidity 42    
Precipitation  
Precipitation 0.00 in - - ()
Sea Level Pressure  
Sea Level Pressure 29.85 in    
Wind  
Wind Speed 13 mph (WSW)    
Max Wind Speed 20 mph    
Max Gust Speed 26 mph    
Visibility 8 miles    
Events      
Averages and records for this station are not official NWS values.
T = Trace of Precipitation, MM = Missing Value Source: NWS Daily Summary

Daily Weather History Graph

Daily Weather History Graph

Search for Another Location

Airport or City:

Trip Planner

Search our weather history database for the weather conditions in past years. The results will help you decide how hot, cold, wet, or windy it might be!

Date:

Astronomy

Dec. 09, 2012 Rise Set
Actual Time 7:16 AM CST 5:19 PM CST
Civil Twilight 6:48 AM CST 5:46 PM CST
Nautical Twilight 6:18 AM CST 6:17 PM CST
Astronomical Twilight 5:48 AM CST 6:47 PM CST
Moon 3:00 AM CST (12/9) 2:18 PM CST (12/9)
Length of Visible Light 10h 57m
Length of Day
10h 03m
Waning Crescent, 18% of the Moon is Illuminated
Dec 9
Waning Crescent
Dec 13
New
Dec 19
First Quarter
Dec 28
Full
Jan 4
Last Quarter

Hourly Weather History & Observations

Time (CST) Temp. Windchill Dew Point Humidity Pressure Visibility Wind Dir Wind Speed Gust Speed Precip Events Conditions
12:53 AM 66.0 °F - 62.1 °F 87% 29.78 in 9.0 mi South 11.5 mph - N/A   Clear
1:53 AM 66.0 °F - 62.1 °F 87% 29.78 in 8.0 mi South 10.4 mph - N/A   Clear
2:53 AM 66.0 °F - 63.0 °F 90% 29.78 in 7.0 mi South 11.5 mph - N/A   Partly Cloudy
3:53 AM 66.0 °F - 64.0 °F 93% 29.78 in 6.0 mi South 8.1 mph - N/A   Mostly Cloudy
4:53 AM 68.0 °F - 64.9 °F 90% 29.78 in 6.0 mi SSW 8.1 mph - N/A   Overcast
5:53 AM 70.0 °F - 64.9 °F 84% 29.79 in 6.0 mi South 9.2 mph - N/A   Haze
6:53 AM 70.0 °F - 64.9 °F 84% 29.79 in 7.0 mi South 12.7 mph 20.7 mph N/A   Overcast
7:53 AM 70.0 °F - 64.9 °F 84% 29.81 in 5.0 mi SSW 10.4 mph - N/A   Haze
8:53 AM 71.1 °F - 64.9 °F 81% 29.81 in 5.0 mi South 15.0 mph - N/A   Haze
9:51 AM 73.4 °F - 64.4 °F 73% 29.84 in 6.0 mi SSW 19.6 mph 25.3 mph N/A   Haze
9:53 AM 73.9 °F - 64.0 °F 71% 29.83 in 6.0 mi SSW 16.1 mph 25.3 mph N/A   Haze
10:08 AM 73.4 °F - 64.4 °F 73% 29.85 in 6.0 mi SW 13.8 mph 23.0 mph N/A   Haze
10:42 AM 73.4 °F - 64.4 °F 73% 29.84 in 6.0 mi SW 11.5 mph - N/A   Haze
10:53 AM 73.9 °F - 64.0 °F 71% 29.83 in 6.0 mi SW 16.1 mph 20.7 mph N/A   Haze
11:22 AM 73.4 °F - 62.6 °F 69% 29.83 in 7.0 mi SW 17.3 mph - N/A   Mostly Cloudy
11:34 AM 75.2 °F - 62.6 °F 65% 29.83 in 7.0 mi SW 16.1 mph 24.2 mph N/A   Mostly Cloudy
11:53 AM 75.0 °F - 62.1 °F 64% 29.81 in 7.0 mi WSW 17.3 mph - N/A   Partly Cloudy
12:53 PM 73.0 °F - 55.9 °F 55% 29.79 in 8.0 mi West 16.1 mph 23.0 mph N/A   Clear
1:53 PM 68.0 °F - 54.0 °F 61% 29.79 in 9.0 mi WNW 17.3 mph - N/A   Clear
2:53 PM 64.9 °F - 46.0 °F 50% 29.81 in 10.0 mi NW 17.3 mph 25.3 mph N/A   Clear
3:53 PM 60.1 °F - 46.9 °F 62% 29.85 in 9.0 mi NW 11.5 mph - N/A   Clear
4:53 PM 57.0 °F - 46.9 °F 69% 29.86 in 9.0 mi NNW 11.5 mph 19.6 mph N/A   Partly Cloudy
5:20 PM 57.2 °F - 46.4 °F 67% 29.88 in 10.0 mi North 12.7 mph 18.4 mph N/A   Mostly Cloudy
5:53 PM 57.0 °F - 46.0 °F 67% 29.88 in 10.0 mi NNW 12.7 mph 20.7 mph N/A   Overcast
6:53 PM 55.0 °F - 45.0 °F 69% 29.90 in 10.0 mi North 15.0 mph 18.4 mph N/A   Overcast
7:53 PM 54.0 °F - 42.1 °F 64% 29.92 in 10.0 mi North 13.8 mph - N/A   Overcast
8:46 PM 53.6 °F - 39.2 °F 58% 29.95 in 10.0 mi North 15.0 mph 21.9 mph N/A   Overcast
8:53 PM 53.1 °F - 39.9 °F 61% 29.94 in 10.0 mi North 15.0 mph 23.0 mph N/A   Overcast
9:53 PM 50.0 °F - 35.1 °F 57% 29.96 in 10.0 mi NNW 18.4 mph 26.5 mph N/A   Scattered Clouds
10:53 PM 46.0 °F 39.6 °F 28.0 °F 50% 29.98 in 10.0 mi NNW 15.0 mph 25.3 mph N/A   Scattered Clouds
11:53 PM 44.1 °F 38.1 °F 21.9 °F 42% 30.01 in 10.0 mi North 11.5 mph 20.7 mph N/A   Mostly Cloudy